Showing default

GOES 2, 10061

Orbit data source: Space-Track

GOES 2, 10061 is a payload satellite owned by NOAA (US) in GEO that was launched on Thu, 16 Jun 1977 UTC via a DELTA 2914 launch vehicle from the Air Force Eastern Test Range (AFETR). Payload-class satellites include a variety of spacecraft equipped with specific instruments for various scientific and technological missions. These include communications satellites like Starlink; space stations such as the ISS; scientific satellites like the Hubble; Earth observation satellites from companies like Planet Labs, Umbra, and HawkEye 360; GPS; miniature CubeSats for education and research; and military/defense satellites.

Not visible in the next 10 days
Identifier
10061, 1977-048A
Orbit
GEO
Country
Flag of USUS
Related business
Manufacturer
Ford Ae
Mission
Non-operational spacecraft
Bus & Motor
SMS, SVM-5
Mass
624 kg wet, ~277 kg dry
Launch date (UTC)
1977-06-16 (48 years ago)
Launch vehicle
DELTA 2914
Launch site
Air Force Eastern Test Range (AFETR)
Object type
Payload
Rocket body
Debris
Shape & HBR
Unknown
Radar Cross Section
Large (>1 m²)

Expand to show TLE details & history
Last TLE update: 1 day ago

TLE from 1 day ago
0 GOES 2
1 10061U 77048A   25306.35166100 -.00000321  00000-0  00000+0 0  9998
2 10061   6.9629 295.2294 0011605  39.1325 333.8430  0.99401153 44027
Epoch: 2025-11-02T08:26Z
TLE epoch observation values (Epoch: 2025-11-02T08:26:23.510Z)
Latitude
1.57208°
Longitude
139.54762°
Altitude
35,987.812 km
Speed
3.069 km/s
True Right ascension
20h 32m 03s
True Declination
1° 34' 14"
Sunlit
Object was in daylight at epoch
Visualization orbit readout
Latitude
Unknown
Longitude
Unknown
Altitude
Unknown
Speed
Unknown
Apparent Right ascension
Unknown
Apparent Declination
Unknown
Sunlit
N/A
Visualization observer readout
Local Sidereal Time
06:16:39
Azimuth
Unknown
Elevation
Unknown
Doppler factor
Unknown
Orbital elements
Apogee altitude
36,082.705 km
Perigee altitude
35,984.267 km
Semi-major axis
42,411.623 km
Eccentricity
0.00116
Inclination
6.9629°
RAAN
295.2294°
Arg. of periapsis
39.1325°
True anomaly
333.7843°
Mean anomaly
333.843°
Eccentric anomaly
333.81366°
Mean motion
0.24849 °/min
Orbital period
1,448.73 mins
BSTAR
0
Loading maneuver chart data...
Computing Atmospheric mass density...
Loading historical data...
Loading historical data...
Loading historical data...
Loading historical data...
Loading historical data...
Loading historical data...
Loading historical data...

Documentation

Showing up to 5 results
|